Sanford, NC

2:51 AM EST on January 21, 2017 (GMT -0500)
Sanford

Weather History for KTTA - November, 2012

Change the Weather History Date:

Thursday, November 1, 2012

  Actual Average (KHRJ) Record (KHRJ)
Temperature  
Mean Temperature 45 °F -  
Max Temperature 57 °F 69 °F 84 °F (2003)
Min Temperature 33 °F 45 °F 26 °F (1975)
Degree Days  
Heating Degree Days 20    
Moisture  
Dew Point 35 °F    
Average Humidity 67    
Maximum Humidity 100    
Minimum Humidity 38    
Precipitation  
Precipitation 0.00 in - - ()
Sea Level Pressure  
Sea Level Pressure 29.80 in    
Wind  
Wind Speed 4 mph (West)    
Max Wind Speed 14 mph    
Max Gust Speed 23 mph    
Visibility 10 miles    
Events      
Averages and records for this station are not official NWS values.
T = Trace of Precipitation, MM = Missing Value Source: NWS Daily Summary

Daily Weather History Graph

Daily Weather History Graph

Search for Another Location

Airport or City:

Trip Planner

Search our weather history database for the weather conditions in past years. The results will help you decide how hot, cold, wet, or windy it might be!

Date:

Astronomy

Nov. 01, 2012 Rise Set
Actual Time 7:38 AM EDT 6:20 PM EDT
Civil Twilight 7:12 AM EDT 6:47 PM EDT
Nautical Twilight 6:42 AM EDT 7:17 PM EDT
Astronomical Twilight 6:12 AM EDT 7:47 PM EDT
Moon 8:20 PM EDT (11/1) 10:05 AM EDT (11/1)
Length of Visible Light 11h 34m
Length of Day
10h 41m
Waning Gibbous, 93% of the Moon is Illuminated
Nov 1
Waning Gibbous
Nov 6
Last Quarter
Nov 13
New
Nov 20
First Quarter
Nov 28
Full

Hourly Weather History & Observations

Time (EDT) Temp. Windchill Dew Point Humidity Pressure Visibility Wind Dir Wind Speed Gust Speed Precip Events Conditions
12:15 AM 50.0 °F - 33.8 °F 54% 29.78 in 10.0 mi WNW 3.5 mph - N/A   Overcast
12:35 AM 48.2 °F - 33.8 °F 58% 29.78 in 10.0 mi SW 5.8 mph - N/A   Overcast
12:55 AM 46.4 °F 45.2 °F 33.8 °F 62% 29.78 in 10.0 mi SW 3.5 mph - N/A   Mostly Cloudy
1:15 AM 46.4 °F - 33.8 °F 62% 29.78 in 10.0 mi Calm Calm - N/A   Scattered Clouds
1:35 AM 44.6 °F - 33.8 °F 66% 29.79 in 10.0 mi Calm Calm - N/A   Scattered Clouds
1:55 AM 41.0 °F - 33.8 °F 76% 29.79 in 10.0 mi Calm Calm - N/A   Mostly Cloudy
2:15 AM 41.0 °F - 35.6 °F 81% 29.79 in 10.0 mi Calm Calm - N/A   Overcast
2:35 AM 41.0 °F - 35.6 °F 81% 29.78 in 10.0 mi Calm Calm - N/A   Overcast
2:55 AM 41.0 °F - 35.6 °F 81% 29.78 in 10.0 mi Calm Calm - N/A   Overcast
3:15 AM 41.0 °F - 35.6 °F 81% 29.78 in 10.0 mi Calm Calm - N/A   Overcast
3:35 AM 42.8 °F - 37.4 °F 81% 29.78 in 10.0 mi Calm Calm - N/A   Overcast
3:55 AM 42.8 °F - 35.6 °F 76% 29.77 in 10.0 mi Calm Calm - N/A   Overcast
4:15 AM 42.8 °F 41.1 °F 35.6 °F 76% 29.77 in 10.0 mi SW 3.5 mph - N/A   Overcast
4:35 AM 42.8 °F 41.1 °F 37.4 °F 81% 29.77 in 10.0 mi SW 3.5 mph - N/A   Overcast
4:55 AM 42.8 °F - 37.4 °F 81% 29.77 in 10.0 mi Calm Calm - N/A   Overcast
5:15 AM 42.8 °F - 37.4 °F 81% 29.77 in 10.0 mi Calm Calm - N/A   Overcast
5:35 AM 42.8 °F 41.1 °F 35.6 °F 76% 29.77 in 10.0 mi SW 3.5 mph - N/A   Mostly Cloudy
5:55 AM 41.0 °F 39.0 °F 35.6 °F 81% 29.78 in 10.0 mi WSW 3.5 mph - N/A   Scattered Clouds
6:15 AM 41.0 °F - 35.6 °F 81% 29.78 in 10.0 mi Calm Calm - N/A   Clear
6:35 AM 41.0 °F - 35.6 °F 81% 29.78 in 10.0 mi Calm Calm - N/A   Clear
6:55 AM 37.4 °F 33.8 °F 35.6 °F 93% 29.78 in 10.0 mi SW 4.6 mph - N/A   Clear
7:15 AM 39.2 °F 37.0 °F 35.6 °F 87% 29.79 in 10.0 mi WSW 3.5 mph - N/A   Scattered Clouds
7:35 AM 39.2 °F - 35.6 °F 87% 29.79 in 10.0 mi Calm Calm - N/A   Scattered Clouds
7:55 AM 39.2 °F 37.0 °F 35.6 °F 87% 29.80 in 10.0 mi WSW 3.5 mph - N/A   Scattered Clouds
8:15 AM 39.2 °F 37.0 °F 35.6 °F 87% 29.80 in 10.0 mi WSW 3.5 mph - N/A   Clear
8:35 AM 41.0 °F 39.0 °F 35.6 °F 81% 29.81 in 10.0 mi SW 3.5 mph - N/A   Clear
8:55 AM 42.8 °F - 37.4 °F 81% 29.81 in 10.0 mi Calm Calm - N/A   Clear
9:15 AM 44.6 °F 43.1 °F 37.4 °F 76% 29.82 in 10.0 mi SW 3.5 mph - N/A   Clear
9:35 AM 46.4 °F 44.3 °F 35.6 °F 66% 29.82 in 10.0 mi WSW 4.6 mph - N/A   Clear
9:55 AM 48.2 °F - 35.6 °F 62% 29.82 in 10.0 mi WSW 6.9 mph - N/A   Clear
10:15 AM 50.0 °F - 35.6 °F 58% 29.82 in 10.0 mi West 8.1 mph - N/A   Clear
10:35 AM 51.8 °F - 35.6 °F 54% 29.81 in 10.0 mi West 8.1 mph - N/A   Clear
10:55 AM 51.8 °F - 33.8 °F 50% 29.82 in 10.0 mi West 5.8 mph - N/A   Clear
11:15 AM 53.6 °F - 32.0 °F 44% 29.82 in 10.0 mi West 13.8 mph 23.0 mph N/A   Clear
11:35 AM 53.6 °F - 32.0 °F 44% 29.82 in 10.0 mi NW 13.8 mph 19.6 mph N/A   Clear
11:55 AM 55.4 °F - 32.0 °F 41% 29.81 in 10.0 mi WNW 9.2 mph - N/A   Clear
12:15 PM 55.4 °F - 32.0 °F 41% 29.81 in 10.0 mi WSW 9.2 mph - N/A   Clear
12:35 PM 55.4 °F - 33.8 °F 44% 29.80 in 10.0 mi SW 10.4 mph - N/A   Clear
12:55 PM 57.2 °F - 33.8 °F 41% 29.80 in 10.0 mi West 9.2 mph 16.1 mph N/A   Clear
1:15 PM 57.2 °F - 33.8 °F 41% 29.78 in 10.0 mi WNW 11.5 mph 18.4 mph N/A   Mostly Cloudy
1:35 PM 55.4 °F - 32.0 °F 41% 29.78 in 10.0 mi WNW 11.5 mph 16.1 mph N/A   Overcast
1:55 PM 55.4 °F - 33.8 °F 44% 29.77 in 10.0 mi West 11.5 mph 16.1 mph N/A   Overcast
2:15 PM 55.4 °F - 33.8 °F 44% 29.77 in 10.0 mi WNW 8.1 mph 17.3 mph N/A   Overcast
2:35 PM 57.2 °F - 32.0 °F 38% 29.76 in 10.0 mi WNW 12.7 mph 17.3 mph N/A   Mostly Cloudy
2:55 PM 57.2 °F - 32.0 °F 38% 29.75 in 10.0 mi WNW 10.4 mph - N/A   Scattered Clouds
3:15 PM 57.2 °F - 32.0 °F 38% 29.76 in 10.0 mi WNW 11.5 mph - N/A   Mostly Cloudy
3:35 PM 57.2 °F - 33.8 °F 41% 29.76 in 10.0 mi WNW 10.4 mph - N/A   Overcast
3:55 PM 55.4 °F - 33.8 °F 44% 29.77 in 10.0 mi WNW 11.5 mph - N/A   Overcast
4:15 PM 55.4 °F - 33.8 °F 44% 29.78 in 10.0 mi WNW 8.1 mph 16.1 mph N/A   Overcast
4:35 PM 55.4 °F - 33.8 °F 44% 29.78 in 10.0 mi West 11.5 mph 16.1 mph N/A   Overcast
4:55 PM 55.4 °F - 33.8 °F 44% 29.78 in 10.0 mi West 6.9 mph - N/A   Overcast
5:15 PM 57.2 °F - 33.8 °F 41% 29.78 in 10.0 mi WNW 9.2 mph - N/A   Mostly Cloudy
5:35 PM 57.2 °F - 33.8 °F 41% 29.78 in 10.0 mi WNW 9.2 mph 17.3 mph N/A   Mostly Cloudy
5:55 PM 55.4 °F - 33.8 °F 44% 29.78 in 10.0 mi WNW 3.5 mph - N/A   Scattered Clouds
6:15 PM 55.4 °F - 33.8 °F 44% 29.79 in 10.0 mi Calm Calm - N/A   Scattered Clouds
6:35 PM 51.8 °F - 35.6 °F 54% 29.79 in 10.0 mi Calm Calm - N/A   Scattered Clouds
6:55 PM 48.2 °F - 37.4 °F 66% 29.80 in 10.0 mi Calm Calm - N/A   Clear
7:15 PM 46.4 °F - 35.6 °F 66% 29.81 in 10.0 mi Calm Calm - N/A   Clear
7:35 PM 44.6 °F - 35.6 °F 71% 29.82 in 10.0 mi Calm Calm - N/A   Clear
7:55 PM 42.8 °F - 35.6 °F 76% 29.82 in 10.0 mi Calm Calm - N/A   Clear
8:15 PM 42.8 °F - 35.6 °F 76% 29.83 in 10.0 mi Calm Calm - N/A   Clear
8:35 PM 41.0 °F - 35.6 °F 81% 29.83 in 10.0 mi Calm Calm - N/A   Clear
8:55 PM 41.0 °F - 35.6 °F 81% 29.83 in 10.0 mi Calm Calm - N/A   Clear
9:15 PM 37.4 °F 34.9 °F 35.6 °F 93% 29.84 in 10.0 mi SW 3.5 mph - N/A   Clear
9:35 PM 37.4 °F - 35.6 °F 93% 29.85 in 10.0 mi Calm Calm - N/A   Clear
9:55 PM 37.4 °F - 35.6 °F 93% 29.85 in 10.0 mi Calm Calm - N/A   Clear
10:15 PM 35.6 °F - 33.8 °F 93% 29.85 in 10.0 mi Calm Calm - N/A   Clear
10:35 PM 35.6 °F - 33.8 °F 93% 29.86 in 10.0 mi Calm Calm - N/A   Clear
10:55 PM 35.6 °F - 33.8 °F 93% 29.86 in 10.0 mi Calm Calm - N/A   Clear
11:15 PM 35.6 °F - 33.8 °F 93% 29.86 in 10.0 mi Calm Calm - N/A   Clear
11:35 PM 33.8 °F - 33.8 °F 100% 29.86 in 10.0 mi Calm Calm - N/A   Clear
11:55 PM 35.6 °F - 33.8 °F 93% 29.86 in 10.0 mi Calm Calm - N/A   Clear